ONEWEB-0050, 45453

Orbit data source: Space-Track

ONEWEB-0050, 45453 is a payload satellite owned by One Web (UK) in LEO that was launched on Sat, 21 Mar 2020 UTC via a SOYUZ-2-1B launch vehicle from the Tyuratam Missile And Space Complex (TTMTR). Payload-class satellites include a variety of spacecraft equipped with specific instruments for various scientific and technological missions. These include communications satellites like Starlink; space stations such as the ISS; scientific satellites like the Hubble; Earth observation satellites from companies like Planet Labs, Umbra, and HawkEye 360; GPS; miniature CubeSats for education and research; and military/defense satellites.

Loading next visibility...
Identifier
45453, 2020-020AF
Orbit
LEO
Last TLE update
19 hours ago
Origin
Manufacturer
One Web
Mission
Partially operational Commercial Communications
Bus & Motor
ARROW, Unknown motor
Mass
148 kg wet, ~140 kg dry
Launch date (UTC)
2020-03-21 (5 years ago)
Launch vehicle
SOYUZ-2-1B
Launch site
Tyuratam Missile And Space Complex (TTMTR)
Object type
Payload
Rocket body
Debris
Shape & HBR
Trap Box + 2 Pan, 5 m
Radar Cross Section
2.957 m², Large (>1 m²)

Expand to show TLE details & history

TLE from 19 hours ago
0 ONEWEB-0050
1 45453U 20020AF  25128.50439461  .00002581  00000-0  26240-3 0  9998
2 45453  87.9952 305.4694 0003148  42.4742 317.6729 14.90449237280124
Epoch: 2025-05-08T12:06Z
Definitive object data (Epoch: 2025-05-08T12:06:19.694Z)
Latitude
-0.00008°
Longitude
-102.6866°
Altitude
598.058 km
Speed
7.562 km/s
True Right ascension
20h 21m 52s
True Declination
0° 00' 00"
Sunlit
Object was in daylight at TLE epoch
Visualization TLE readout
Latitude
-38.87099°
Longitude
78.72318°
Altitude
613.694 km
Speed
7.55 km/s
Apparent Right ascension
05h 53m 09s
Apparent Declination
-47° 17' 40"
Sunlit
Object is in daylight
Visualization observer readout
Local Sidereal Time
14:57:22
Azimuth
241.999° WSW
Elevation
-57.787°
Doppler factor
1
Orbital elements
Apogee altitude
595.588 km
Perigee altitude
591.199 km
Semi-major axis
6,971.531 km
Eccentricity
0.0003148
Inclination
87.9952°
RAAN
305.4694°
Arg. of periapsis
42.4742°
True anomaly
317.6486°
Mean anomaly
317.6729°
Eccentric anomaly
317.66075°
Mean motion
3.72864 °/min
BSTAR
0.0002624
Orbital period
96.55 mins
Loading maneuver chart data...
Loading SW <> Apogee altitude chart data...
Loading historical data...
Loading historical data...
Loading historical data...
Loading historical data...
Loading historical data...
Loading historical data...
Loading historical data...

ONEWEB-0050 Visibility forecast

Observer location: undefined°, undefined°

Span
Click to sort rows by Start time (UTC) header in descending order
Start Az.
Max El. time (UTC)
Max El. Az.
Max El.
End time (UTC)
End Az.
7 mins2025-05-09 12:23:29.070Z187.953° SSW2025-05-09 12:27:29.070Z299.303° NW42.622°2025-05-09 12:30:29.070Z353.328° N
6 mins2025-05-10 00:08:29.070Z350.422° N2025-05-10 00:10:29.070Z309.816° NW42.388°2025-05-10 00:14:29.070Z189.395° SSW
|